This demonstration page uses our WeatherBlox Daily Observations layout. Learn more.

Left ArrowRight Arrow

38.83388, -104.82136

Hourly Observations for January 10, 2015

Temp ( °F °C ) Dew Point ( °F °C ) Humidity (%) Winds ( mph kmh ) Pressure ( in mb ) Visibility ( mi km ) Precip ( " mm )
12:11 am 00:11 Mostly Clear 18 -8 18 -8 100 100 VRB 1 2 30.24 1024 10 16 N/A
12:56 am 00:56 Partly Cloudy 30 -1.3 30 -1.2 100 100 VRB 2 4 30.09 1019 10 16 N/A
1:56 am 01:56 Mostly Clear 29 -1.4 30 -1.2 100 100 W 3 6 30.11 1020 10 16 0.01 0.25
2:56 am 02:56 Mostly Cloudy 34 1.3 23 -5.2 62 62 WNW 10 17 30.07 1018 10 16 0.01 0.25
3:56 am 03:56 Mostly Clear 37 2.9 18 -7.8 46 46 WNW 10 17 30.03 1017 10 16 0.01 0.25
4:56 am 04:56 Mostly Cloudy 37 2.7 19 -7.4 48 48 SW 3 6 30.03 1017 10 16 0.00 0.00
5:56 am 05:56 Mostly Cloudy 37 3 17 -8.6 43 43 WNW 5 7 30.02 1017 10 16 N/A
6:56 am 06:56 Clear 41 5.1 15 -9.2 35 35 S 6 9 30.01 1016 10 16 0.01 0.25
7:56 am 07:56 Mostly Sunny 45 7 10 -12.4 24 24 SSW 7 11 30.01 1016 10 16 0.02 0.51
8:56 am 08:56 Sunny 40 4.6 17 -8.5 38 38 VRB 2 4 30.06 1018 10 16 0.01 0.25
10:56 am 10:56 Sunny 49 9.6 18 -7.9 29 29 SSE 9 15 30.03 1017 10 16 0.00 0.00
11:56 am 11:56 Sunny 47 8.5 19 -7.2 32 32 SSE 14 22 30.01 1016 10 16 N/A
12:56 pm 12:56 Sunny 47 8.6 18 -8 30 30 SSE 14 22 29.93 1014 10 16 N/A
1:56 pm 13:56 Sunny 48 9 11 -11.4 23 23 SSE 15 24 29.92 1013 10 16 N/A
2:56 pm 14:56 Sunny 48 8.8 12 -11 24 24 S 13 20 29.91 1013 10 16 N/A
3:56 pm 15:56 Sunny 46 7.9 14 -10.1 27 27 S 12 19 29.90 1013 10 16 N/A
4:56 pm 16:56 Sunny 45 7.2 14 -10 29 29 SSW 17 28 29.92 1013 10 16 N/A
5:56 pm 17:56 Clear 43 6.3 15 -9.2 32 32 S 18 30 29.95 1014 10 16 N/A
6:56 pm 18:56 Clear 40 4.3 17 -8.2 40 40 S 16 26 29.95 1014 10 16 N/A
7:56 pm 19:56 Clear 39 4.1 18 -7.9 42 42 SSW 18 30 29.91 1013 10 16 N/A
8:56 pm 20:56 Clear 40 4.5 17 -8.4 39 39 S 7 11 29.94 1014 10 16 N/A
9:56 pm 21:56 Clear 41 4.9 17 -8.5 38 38 WSW 12 19 29.92 1013 10 16 N/A
11:56 pm 23:56 Clear 40 4.4 18 -7.9 41 41 VRB 5 7 29.89 1012 10 16 N/A

Powered by AerisWeather